Location: Herksen
(52.4316°N, 6.1319°E)
Time: 05:49:03
(UTC+00:00)

Cosmos 2322 Rocket - Pass Details

Date: 15 May 2026
Orbit: 831 x 850 km, 71.0° (Epoch: 6 June)

Event Time Altitude Azimuth Distance (km) Brightness Sun altitude
Rises 22:16:54 0° 321° (NW) 3,409 6.7 -16.7°
Reaches altitude 10° 22:19:50 10° 307° (NW) 2,472 5.4 -16.8°
Maximum altitude 22:24:06 22° 258° (WSW) 1,755 3.9 -17.0°
Enters shadow 22:27:37 13° 215° (SW) 2,267 4.1 -17.2°
